Location: Long Geng
(2.6167°N, 114.1333°E)
Time: 06:18:59
(UTC+00:00)

Cosmos 2058 Rocket - Pass Details

Date: 14 May 2021
Orbit: 611 x 638 km, 82.5° (Epoch: 13 June)

Event Time Altitude Azimuth Distance (km) Brightness Sun altitude
Rises 21:11:06 0° 334° (NNW) 2,924 6.5 -15.3°
Reaches altitude 10° 21:13:41 10° 320° (NW) 2,017 5.5 -14.7°
Maximum altitude 21:17:16 24° 267° (W) 1,326 4.2 -13.9°
Enters shadow 21:18:45 20° 238° (WSW) 1,470 4.4 -13.5°
